TimeEST,TemperatureF,Dew PointF,Humidity,Sea Level PressureIn,VisibilityMPH,Wind Direction,Wind SpeedMPH,Gust SpeedMPH,PrecipitationIn,Events,Conditions,WindDirDegrees,DateUTC
12:53 AM,30.0,28.0,92,29.96,0.2,Calm,Calm,-,N/A,Fog,Light Freezing Fog,0,2014-02-22 05:53:00
1:08 AM,28.4,26.6,93,29.95,1.0,Calm,Calm,-,N/A,,Mist,0,2014-02-22 06:08:00
1:23 AM,28.4,26.6,93,29.96,0.5,SW,3.5,-,N/A,Fog,Light Freezing Fog,230,2014-02-22 06:23:00
1:53 AM,27.0,26.1,96,29.95,0.2,Calm,Calm,-,N/A,Fog,Light Freezing Fog,0,2014-02-22 06:53:00
2:08 AM,28.4,26.6,93,29.95,1.0,Calm,Calm,-,N/A,,Mist,0,2014-02-22 07:08:00
2:22 AM,28.4,26.6,93,29.96,0.5,Calm,Calm,-,N/A,Fog,Light Freezing Fog,0,2014-02-22 07:22:00
2:33 AM,28.4,26.6,93,29.96,1.2,Calm,Calm,-,N/A,,Partly Cloudy,0,2014-02-22 07:33:00
2:37 AM,26.6,24.8,93,29.96,3.0,Calm,Calm,-,N/A,,Partly Cloudy,0,2014-02-22 07:37:00
2:42 AM,26.6,24.8,93,29.96,1.8,Calm,Calm,-,N/A,,Partly Cloudy,0,2014-02-22 07:42:00
2:45 AM,26.6,24.8,93,29.96,0.8,Calm,Calm,-,N/A,,Mist,0,2014-02-22 07:45:00
2:53 AM,28.0,25.0,88,29.96,0.2,Calm,Calm,-,N/A,Fog,Light Freezing Fog,0,2014-02-22 07:53:00
3:30 AM,26.6,24.8,93,29.96,1.0,Calm,Calm,-,N/A,,Mist,0,2014-02-22 08:30:00
3:40 AM,24.8,24.8,100,29.97,0.8,Calm,Calm,-,N/A,,Mist,0,2014-02-22 08:40:00
3:53 AM,26.1,24.1,92,29.98,0.5,Calm,Calm,-,N/A,Fog,Light Freezing Fog,0,2014-02-22 08:53:00
3:58 AM,24.8,23.0,93,29.98,1.0,Calm,Calm,-,N/A,,Clear,0,2014-02-22 08:58:00
4:01 AM,24.8,23.0,93,29.98,3.0,Calm,Calm,-,N/A,,Clear,0,2014-02-22 09:01:00
4:26 AM,26.6,24.8,93,29.98,1.5,Calm,Calm,-,N/A,,Clear,0,2014-02-22 09:26:00
4:40 AM,24.8,23.0,93,29.99,3.0,Calm,Calm,-,N/A,,Clear,0,2014-02-22 09:40:00
4:53 AM,25.0,21.9,88,30.00,8.0,Calm,Calm,-,N/A,,Clear,0,2014-02-22 09:53:00
5:53 AM,27.0,23.0,85,30.02,10.0,West,4.6,-,N/A,,Clear,280,2014-02-22 10:53:00
6:53 AM,27.0,25.0,92,30.04,8.0,West,3.5,-,N/A,,Clear,270,2014-02-22 11:53:00
7:53 AM,36.0,32.0,86,30.06,10.0,WSW,8.1,-,N/A,,Clear,250,2014-02-22 12:53:00
8:53 AM,44.1,33.1,65,30.07,10.0,West,8.1,-,N/A,,Clear,260,2014-02-22 13:53:00
9:53 AM,48.0,28.0,46,30.07,10.0,WSW,11.5,-,N/A,,Clear,240,2014-02-22 14:53:00
10:53 AM,46.9,27.0,46,30.07,10.0,WSW,12.7,21.9,N/A,,Clear,240,2014-02-22 15:53:00
11:53 AM,48.0,25.0,41,30.05,10.0,SW,15.0,20.7,N/A,,Clear,230,2014-02-22 16:53:00
12:53 PM,48.9,23.0,36,30.03,10.0,SW,13.8,23.0,N/A,,Clear,230,2014-02-22 17:53:00
1:53 PM,48.0,28.0,46,30.01,10.0,SW,17.3,24.2,N/A,,Clear,220,2014-02-22 18:53:00
2:53 PM,48.0,28.9,48,30.00,10.0,SSW,11.5,26.5,N/A,,Clear,210,2014-02-22 19:53:00
3:53 PM,46.0,30.0,54,30.01,10.0,SW,13.8,20.7,N/A,,Clear,220,2014-02-22 20:53:00
4:53 PM,45.0,30.0,56,30.01,10.0,SW,12.7,24.2,N/A,,Clear,220,2014-02-22 21:53:00
5:53 PM,42.1,28.9,60,30.02,10.0,SW,16.1,23.0,N/A,,Clear,230,2014-02-22 22:53:00
6:53 PM,42.1,28.9,60,30.02,10.0,SW,10.4,-,N/A,,Clear,230,2014-02-22 23:53:00
7:53 PM,42.1,28.9,60,30.04,10.0,WSW,12.7,-,N/A,,Clear,240,2014-02-23 00:53:00
8:53 PM,42.1,30.0,62,30.05,10.0,SW,10.4,-,N/A,,Clear,230,2014-02-23 01:53:00
9:53 PM,42.1,30.9,65,30.06,10.0,SW,10.4,-,N/A,,Clear,230,2014-02-23 02:53:00
10:53 PM,42.1,30.9,65,30.06,10.0,SW,10.4,-,N/A,,Clear,230,2014-02-23 03:53:00
11:53 PM,41.0,30.9,67,30.04,10.0,WSW,8.1,-,N/A,,Clear,250,2014-02-23 04:53:00